Location: Dehesa de la Cepeda
(40.6574°N, 4.3013°W)
Time: 10:50:56
(UTC+00:00)

Vanguard 2 Rocket - Pass Details

Date: 31 October 2021
Orbit: 555 x 3324 km, 32.9° (Epoch: 09 December)

Event Time Altitude Azimuth Distance (km) Brightness Sun altitude
Exits shadow 02:18:30 38° 150° (SSE) 3,926 9.9 -50.0°
Drops below altitude 10° 02:31:00 10° 92° (E) 4,792 11.0 -47.9°
Sets 02:34:28 0° 84° (E) 5,450 11.5 -47.4°
